Index of /~kerfoot/slocum/deployments/2015/bios_jack-460/imagery/cross_sections

[ICO]NameLast modifiedSizeDescription

[PARENTDIR]Parent Directory  -  
[IMG]bios-jack_20150917T1415_20151107T1953_sea-water-density_ts_lvl2_lores.jpg2015-11-07 17:10 169K 
[IMG]bios-jack_20150917T1415_20151107T1953_sea-water-density_ts_lvl2_tn.jpg2015-11-07 17:10 11K 
[IMG]bios-jack_20150917T1415_20151107T1953_sea-water-density_xsec_lvl2_lores.jpg2015-11-07 17:10 179K 
[IMG]bios-jack_20150917T1415_20151107T1953_sea-water-density_xsec_lvl2_tn.jpg2015-11-07 17:10 11K 
[IMG]bios-jack_20150917T1415_20151107T1953_sea-water-salinity_ts_lvl2_lores.jpg2015-11-07 17:10 130K 
[IMG]bios-jack_20150917T1415_20151107T1953_sea-water-salinity_ts_lvl2_tn.jpg2015-11-07 17:10 9.9K 
[IMG]bios-jack_20150917T1415_20151107T1953_sea-water-salinity_xsec_lvl2_lores.jpg2015-11-07 17:10 138K 
[IMG]bios-jack_20150917T1415_20151107T1953_sea-water-salinity_xsec_lvl2_tn.jpg2015-11-07 17:10 10K 
[IMG]bios-jack_20150917T1415_20151107T1953_sea-water-temperature_ts_lvl2_lores.jpg2015-11-07 17:10 177K 
[IMG]bios-jack_20150917T1415_20151107T1953_sea-water-temperature_ts_lvl2_tn.jpg2015-11-07 17:10 11K 
[IMG]bios-jack_20150917T1415_20151107T1953_sea-water-temperature_xsec_lvl2_lores.jpg2015-11-07 17:10 186K 
[IMG]bios-jack_20150917T1415_20151107T1953_sea-water-temperature_xsec_lvl2_tn.jpg2015-11-07 17:10 12K 
[IMG]bios-jack_20150917T1415_20151107T1953_speed-of-sound-in-sea-water_ts_lvl2_lores.jpg2015-11-07 17:10 171K 
[IMG]bios-jack_20150917T1415_20151107T1953_speed-of-sound-in-sea-water_ts_lvl2_tn.jpg2015-11-07 17:10 11K 
[IMG]bios-jack_20150917T1415_20151107T1953_speed-of-sound-in-sea-water_xsec_lvl2_lores.jpg2015-11-07 17:10 180K 
[IMG]bios-jack_20150917T1415_20151107T1953_speed-of-sound-in-sea-water_xsec_lvl2_tn.jpg2015-11-07 17:10 12K 
[IMG]bios-jack_20150917T1415_20151107T1953_tmap_lvl2_lores.jpg2015-11-07 17:10 49K 
[IMG]bios-jack_20150917T1415_20151107T1953_tmap_lvl2_tn.jpg2015-11-07 17:10 7.7K 
[IMG]bios-jack_20150917T1416_20151107T1953_sea-water-density_ts_lvl2_lores.jpg2015-11-07 17:10 169K 
[IMG]bios-jack_20150917T1416_20151107T1953_sea-water-density_ts_lvl2_tn.jpg2015-11-07 17:10 11K 
[IMG]bios-jack_20150917T1416_20151107T1953_sea-water-density_xsec_lvl2_lores.jpg2015-11-07 17:10 179K 
[IMG]bios-jack_20150917T1416_20151107T1953_sea-water-density_xsec_lvl2_tn.jpg2015-11-07 17:10 11K 
[IMG]bios-jack_20150917T1416_20151107T1953_sea-water-salinity_ts_lvl2_lores.jpg2015-11-07 17:10 130K 
[IMG]bios-jack_20150917T1416_20151107T1953_sea-water-salinity_ts_lvl2_tn.jpg2015-11-07 17:10 9.9K 
[IMG]bios-jack_20150917T1416_20151107T1953_sea-water-salinity_xsec_lvl2_lores.jpg2015-11-07 17:10 138K 
[IMG]bios-jack_20150917T1416_20151107T1953_sea-water-salinity_xsec_lvl2_tn.jpg2015-11-07 17:10 10K 
[IMG]bios-jack_20150917T1416_20151107T1953_sea-water-temperature_ts_lvl2_lores.jpg2015-11-07 17:10 177K 
[IMG]bios-jack_20150917T1416_20151107T1953_sea-water-temperature_ts_lvl2_tn.jpg2015-11-07 17:10 11K 
[IMG]bios-jack_20150917T1416_20151107T1953_sea-water-temperature_xsec_lvl2_lores.jpg2015-11-07 17:10 186K 
[IMG]bios-jack_20150917T1416_20151107T1953_sea-water-temperature_xsec_lvl2_tn.jpg2015-11-07 17:10 12K 
[IMG]bios-jack_20150917T1416_20151107T1953_speed-of-sound-in-sea-water_ts_lvl2_lores.jpg2015-11-07 17:10 170K 
[IMG]bios-jack_20150917T1416_20151107T1953_speed-of-sound-in-sea-water_ts_lvl2_tn.jpg2015-11-07 17:10 11K 
[IMG]bios-jack_20150917T1416_20151107T1953_speed-of-sound-in-sea-water_xsec_lvl2_lores.jpg2015-11-07 17:10 180K 
[IMG]bios-jack_20150917T1416_20151107T1953_speed-of-sound-in-sea-water_xsec_lvl2_tn.jpg2015-11-07 17:10 12K 
[IMG]bios-jack_20150917T1416_20151107T1953_tmap_lvl2_lores.jpg2015-11-07 17:10 48K 
[IMG]bios-jack_20150917T1416_20151107T1953_tmap_lvl2_tn.jpg2015-11-07 17:10 7.6K 
[IMG]bios_jack_20150917T1416_20150921T1216_uvmap_lvl2_lores.jpg2015-09-21 12:32 169K 
[IMG]bios_jack_20150917T1416_20150921T1216_uvmap_lvl2_tn.jpg2015-09-21 12:32 31K 
[IMG]bios_jack_20150917T1416_20150921T1515_uvmap_lvl2_lores.jpg2015-09-21 17:13 169K 
[IMG]bios_jack_20150917T1416_20150921T1515_uvmap_lvl2_tn.jpg2015-09-21 17:13 31K 
[IMG]bios_jack_20150917T1416_20150921T2120_uvmap_lvl2_lores.jpg2015-09-21 21:32 159K 
[IMG]bios_jack_20150917T1416_20150921T2120_uvmap_lvl2_tn.jpg2015-09-21 21:32 28K 
[IMG]bios_jack_20150917T1416_20150922T0023_uvmap_lvl2_lores.jpg2015-09-22 00:00 158K 
[IMG]bios_jack_20150917T1416_20150922T0023_uvmap_lvl2_tn.jpg2015-09-22 00:00 29K 
[IMG]bios_jack_20150917T1416_20150922T0323_uvmap_lvl2_lores.jpg2015-09-22 02:15 160K 
[IMG]bios_jack_20150917T1416_20150922T0323_uvmap_lvl2_tn.jpg2015-09-22 02:15 28K 
[IMG]bios_jack_20150917T1416_20150922T0626_uvmap_lvl2_lores.jpg2015-09-22 06:20 162K 
[IMG]bios_jack_20150917T1416_20150922T0626_uvmap_lvl2_tn.jpg2015-09-22 06:20 29K 
[IMG]bios_jack_20150917T1416_20150922T0925_uvmap_lvl2_lores.jpg2015-09-22 08:41 162K 
[IMG]bios_jack_20150917T1416_20150922T0925_uvmap_lvl2_tn.jpg2015-09-22 08:41 29K 
[IMG]bios_jack_20150917T1416_20150922T1225_uvmap_lvl2_lores.jpg2015-09-22 12:00 162K 
[IMG]bios_jack_20150917T1416_20150922T1225_uvmap_lvl2_tn.jpg2015-09-22 12:00 29K 
[IMG]bios_jack_20150917T1416_20150922T1526_uvmap_lvl2_lores.jpg2015-09-22 15:03 162K 
[IMG]bios_jack_20150917T1416_20150922T1526_uvmap_lvl2_tn.jpg2015-09-22 15:03 29K 
[IMG]bios_jack_20150917T1416_20150922T1833_uvmap_lvl2_lores.jpg2015-09-22 21:41 162K 
[IMG]bios_jack_20150917T1416_20150922T1833_uvmap_lvl2_tn.jpg2015-09-22 21:41 29K 
[IMG]bios_jack_20150917T1416_20150923T0112_uvmap_lvl2_lores.jpg2015-09-23 03:51 162K 
[IMG]bios_jack_20150917T1416_20150923T0112_uvmap_lvl2_tn.jpg2015-09-23 03:51 29K 
[IMG]bios_jack_20150917T1416_20150923T0755_uvmap_lvl2_lores.jpg2015-09-23 17:41 162K 
[IMG]bios_jack_20150917T1416_20150923T0755_uvmap_lvl2_tn.jpg2015-09-23 17:41 29K 
[IMG]bios_jack_20150917T1416_20150923T2105_uvmap_lvl2_lores.jpg2015-09-24 00:00 162K 
[IMG]bios_jack_20150917T1416_20150923T2105_uvmap_lvl2_tn.jpg2015-09-24 00:00 29K 
[IMG]bios_jack_20150917T1416_20150924T0343_uvmap_lvl2_lores.jpg2015-09-24 07:19 162K 
[IMG]bios_jack_20150917T1416_20150924T0343_uvmap_lvl2_tn.jpg2015-09-24 07:19 29K 
[IMG]bios_jack_20150917T1416_20150924T1023_uvmap_lvl2_lores.jpg2015-09-24 20:23 162K 
[IMG]bios_jack_20150917T1416_20150924T1023_uvmap_lvl2_tn.jpg2015-09-24 20:23 29K 
[IMG]bios_jack_20150917T1416_20150924T2342_uvmap_lvl2_lores.jpg2015-09-25 02:21 162K 
[IMG]bios_jack_20150917T1416_20150924T2342_uvmap_lvl2_tn.jpg2015-09-25 02:21 29K 
[IMG]bios_jack_20150917T1416_20150925T0613_uvmap_lvl2_lores.jpg2015-09-25 09:42 163K 
[IMG]bios_jack_20150917T1416_20150925T0613_uvmap_lvl2_tn.jpg2015-09-25 09:42 29K 
[IMG]bios_jack_20150917T1416_20150925T1305_uvmap_lvl2_lores.jpg2015-09-25 13:50 163K 
[IMG]bios_jack_20150917T1416_20150925T1305_uvmap_lvl2_tn.jpg2015-09-25 13:50 29K 
[IMG]bios_jack_20150917T1416_20150925T1950_uvmap_lvl2_lores.jpg2015-09-25 23:40 163K 
[IMG]bios_jack_20150917T1416_20150925T1950_uvmap_lvl2_tn.jpg2015-09-25 23:40 29K 
[IMG]bios_jack_20150917T1416_20150926T0240_uvmap_lvl2_lores.jpg2015-09-26 05:52 162K 
[IMG]bios_jack_20150917T1416_20150926T0240_uvmap_lvl2_tn.jpg2015-09-26 05:52 28K 
[IMG]bios_jack_20150917T1416_20150926T0912_uvmap_lvl2_lores.jpg2015-09-26 12:20 162K 
[IMG]bios_jack_20150917T1416_20150926T0912_uvmap_lvl2_tn.jpg2015-09-26 12:20 28K 
[IMG]bios_jack_20150917T1416_20150926T1551_uvmap_lvl2_lores.jpg2015-09-26 19:20 162K 
[IMG]bios_jack_20150917T1416_20150926T1551_uvmap_lvl2_tn.jpg2015-09-26 19:20 28K 
[IMG]bios_jack_20150917T1416_20150926T2231_uvmap_lvl2_lores.jpg2015-09-27 22:40 162K 
[IMG]bios_jack_20150917T1416_20150926T2231_uvmap_lvl2_tn.jpg2015-09-27 22:40 28K 
[IMG]bios_jack_20150917T1416_20150928T0259_uvmap_lvl2_lores.jpg2015-09-28 06:42 146K 
[IMG]bios_jack_20150917T1416_20150928T0259_uvmap_lvl2_tn.jpg2015-09-28 06:42 33K 
[IMG]bios_jack_20150917T1416_20150928T1002_uvmap_lvl2_lores.jpg2015-09-28 10:42 147K 
[IMG]bios_jack_20150917T1416_20150928T1002_uvmap_lvl2_tn.jpg2015-09-28 10:42 33K 
[IMG]bios_jack_20150917T1416_20150928T1649_uvmap_lvl2_lores.jpg2015-09-28 20:02 147K 
[IMG]bios_jack_20150917T1416_20150928T1649_uvmap_lvl2_tn.jpg2015-09-28 20:02 33K 
[IMG]bios_jack_20150917T1416_20150928T2340_uvmap_lvl2_lores.jpg2015-09-29 00:52 147K 
[IMG]bios_jack_20150917T1416_20150928T2340_uvmap_lvl2_tn.jpg2015-09-29 00:52 33K 
[IMG]bios_jack_20150917T1416_20150929T0616_uvmap_lvl2_lores.jpg2015-09-29 09:42 147K 
[IMG]bios_jack_20150917T1416_20150929T0616_uvmap_lvl2_tn.jpg2015-09-29 09:42 33K 
[IMG]bios_jack_20150917T1416_20150929T1929_uvmap_lvl2_lores.jpg2015-09-29 21:11 147K 
[IMG]bios_jack_20150917T1416_20150929T1929_uvmap_lvl2_tn.jpg2015-09-29 21:11 33K 
[IMG]bios_jack_20150917T1416_20150930T0205_uvmap_lvl2_lores.jpg2015-09-29 23:12 147K 
[IMG]bios_jack_20150917T1416_20150930T0205_uvmap_lvl2_tn.jpg2015-09-29 23:12 33K 
[IMG]bios_jack_20150917T1416_20150930T0841_uvmap_lvl2_lores.jpg2015-09-30 11:11 147K 
[IMG]bios_jack_20150917T1416_20150930T0841_uvmap_lvl2_tn.jpg2015-09-30 11:11 33K 
[IMG]bios_jack_20150917T1416_20150930T1513_uvmap_lvl2_lores.jpg2015-09-30 12:12 147K 
[IMG]bios_jack_20150917T1416_20150930T1513_uvmap_lvl2_tn.jpg2015-09-30 12:12 33K 
[IMG]bios_jack_20150917T1416_20150930T2155_uvmap_lvl2_lores.jpg2015-10-01 00:51 147K 
[IMG]bios_jack_20150917T1416_20150930T2155_uvmap_lvl2_tn.jpg2015-10-01 00:51 33K 
[IMG]bios_jack_20150917T1416_20151001T0433_uvmap_lvl2_lores.jpg2015-10-01 03:02 147K 
[IMG]bios_jack_20150917T1416_20151001T0433_uvmap_lvl2_tn.jpg2015-10-01 03:02 33K 
[IMG]bios_jack_20150917T1416_20151001T1110_uvmap_lvl2_lores.jpg2015-10-01 14:21 164K 
[IMG]bios_jack_20150917T1416_20151001T1110_uvmap_lvl2_tn.jpg2015-10-01 14:21 28K 
[IMG]bios_jack_20150917T1416_20151001T1746_uvmap_lvl2_lores.jpg2015-10-01 21:21 164K 
[IMG]bios_jack_20150917T1416_20151001T1746_uvmap_lvl2_tn.jpg2015-10-01 21:21 28K 
[IMG]bios_jack_20150917T1416_20151002T0024_uvmap_lvl2_lores.jpg2015-10-02 04:01 164K 
[IMG]bios_jack_20150917T1416_20151002T0024_uvmap_lvl2_tn.jpg2015-10-02 04:01 28K 
[IMG]bios_jack_20150917T1416_20151002T0702_uvmap_lvl2_lores.jpg2015-10-02 22:01 164K 
[IMG]bios_jack_20150917T1416_20151002T0702_uvmap_lvl2_tn.jpg2015-10-02 22:01 28K 
[IMG]bios_jack_20150917T1416_20151003T0240_uvmap_lvl2_lores.jpg2015-10-03 06:14 164K 
[IMG]bios_jack_20150917T1416_20151003T0240_uvmap_lvl2_tn.jpg2015-10-03 06:14 28K 
[IMG]bios_jack_20150917T1416_20151003T0919_uvmap_lvl2_lores.jpg2015-10-03 12:23 164K 
[IMG]bios_jack_20150917T1416_20151003T0919_uvmap_lvl2_tn.jpg2015-10-03 12:23 28K 
[IMG]bios_jack_20150917T1416_20151003T1558_uvmap_lvl2_lores.jpg2015-10-03 19:35 164K 
[IMG]bios_jack_20150917T1416_20151003T1558_uvmap_lvl2_tn.jpg2015-10-03 19:35 28K 
[IMG]bios_jack_20150917T1416_20151003T2239_uvmap_lvl2_lores.jpg2015-10-04 01:42 164K 
[IMG]bios_jack_20150917T1416_20151003T2239_uvmap_lvl2_tn.jpg2015-10-04 01:42 28K 
[IMG]bios_jack_20150917T1416_20151004T0510_uvmap_lvl2_lores.jpg2015-10-04 11:04 164K 
[IMG]bios_jack_20150917T1416_20151004T0510_uvmap_lvl2_tn.jpg2015-10-04 11:04 28K 
[IMG]bios_jack_20150917T1416_20151004T1355_uvmap_lvl2_lores.jpg2015-10-06 13:24 164K 
[IMG]bios_jack_20150917T1416_20151004T1355_uvmap_lvl2_tn.jpg2015-10-06 13:24 28K 
[IMG]bios_jack_20150917T1416_20151006T1543_uvmap_lvl2_lores.jpg2015-10-06 18:47 165K 
[IMG]bios_jack_20150917T1416_20151006T1543_uvmap_lvl2_tn.jpg2015-10-06 18:47 28K 
[IMG]bios_jack_20150917T1416_20151006T2135_uvmap_lvl2_lores.jpg2015-10-06 23:23 165K 
[IMG]bios_jack_20150917T1416_20151006T2135_uvmap_lvl2_tn.jpg2015-10-06 23:23 28K 
[IMG]bios_jack_20150917T1416_20151007T0238_uvmap_lvl2_lores.jpg2015-10-07 03:03 164K 
[IMG]bios_jack_20150917T1416_20151007T0238_uvmap_lvl2_tn.jpg2015-10-07 03:03 28K 
[IMG]bios_jack_20150917T1416_20151007T0608_uvmap_lvl2_lores.jpg2015-10-07 06:03 165K 
[IMG]bios_jack_20150917T1416_20151007T0608_uvmap_lvl2_tn.jpg2015-10-07 06:03 28K 
[IMG]bios_jack_20150917T1416_20151007T0936_uvmap_lvl2_lores.jpg2015-10-07 07:50 165K 
[IMG]bios_jack_20150917T1416_20151007T0936_uvmap_lvl2_tn.jpg2015-10-07 07:50 28K 
[IMG]bios_jack_20150917T1416_20151007T1301_uvmap_lvl2_lores.jpg2015-10-07 12:48 165K 
[IMG]bios_jack_20150917T1416_20151007T1301_uvmap_lvl2_tn.jpg2015-10-07 12:48 28K 
[IMG]bios_jack_20150917T1416_20151007T1627_uvmap_lvl2_lores.jpg2015-10-07 16:20 165K 
[IMG]bios_jack_20150917T1416_20151007T1627_uvmap_lvl2_tn.jpg2015-10-07 16:20 28K 
[IMG]bios_jack_20150917T1416_20151007T1953_uvmap_lvl2_lores.jpg2015-10-07 20:16 165K 
[IMG]bios_jack_20150917T1416_20151007T1953_uvmap_lvl2_tn.jpg2015-10-07 20:16 28K 
[IMG]bios_jack_20150917T1416_20151007T2322_uvmap_lvl2_lores.jpg2015-10-07 22:16 164K 
[IMG]bios_jack_20150917T1416_20151007T2322_uvmap_lvl2_tn.jpg2015-10-07 22:16 28K 
[IMG]bios_jack_20150917T1416_20151008T0248_uvmap_lvl2_lores.jpg2015-10-08 03:00 164K 
[IMG]bios_jack_20150917T1416_20151008T0248_uvmap_lvl2_tn.jpg2015-10-08 03:00 28K 
[IMG]bios_jack_20150917T1416_20151008T0617_uvmap_lvl2_lores.jpg2015-10-08 06:35 164K 
[IMG]bios_jack_20150917T1416_20151008T0617_uvmap_lvl2_tn.jpg2015-10-08 06:35 28K 
[IMG]bios_jack_20150917T1416_20151008T0940_uvmap_lvl2_lores.jpg2015-10-08 10:02 165K 
[IMG]bios_jack_20150917T1416_20151008T0940_uvmap_lvl2_tn.jpg2015-10-08 10:02 28K 
[IMG]bios_jack_20150917T1416_20151008T1306_uvmap_lvl2_lores.jpg2015-10-08 13:09 165K 
[IMG]bios_jack_20150917T1416_20151008T1306_uvmap_lvl2_tn.jpg2015-10-08 13:09 28K 
[IMG]bios_jack_20150917T1416_20151008T1633_uvmap_lvl2_lores.jpg2015-10-08 16:38 165K 
[IMG]bios_jack_20150917T1416_20151008T1633_uvmap_lvl2_tn.jpg2015-10-08 16:38 28K 
[IMG]bios_jack_20150917T1416_20151008T1954_uvmap_lvl2_lores.jpg2015-10-08 20:08 165K 
[IMG]bios_jack_20150917T1416_20151008T1954_uvmap_lvl2_tn.jpg2015-10-08 20:08 28K 
[IMG]bios_jack_20150917T1416_20151008T2321_uvmap_lvl2_lores.jpg2015-10-08 23:44 165K 
[IMG]bios_jack_20150917T1416_20151008T2321_uvmap_lvl2_tn.jpg2015-10-08 23:44 28K 
[IMG]bios_jack_20150917T1416_20151009T0248_uvmap_lvl2_lores.jpg2015-10-09 02:44 165K 
[IMG]bios_jack_20150917T1416_20151009T0248_uvmap_lvl2_tn.jpg2015-10-09 02:44 28K 
[IMG]bios_jack_20150917T1416_20151009T0615_uvmap_lvl2_lores.jpg2015-10-09 03:49 165K 
[IMG]bios_jack_20150917T1416_20151009T0615_uvmap_lvl2_tn.jpg2015-10-09 03:49 28K 
[IMG]bios_jack_20150917T1416_20151009T0941_uvmap_lvl2_lores.jpg2015-10-09 10:23 165K 
[IMG]bios_jack_20150917T1416_20151009T0941_uvmap_lvl2_tn.jpg2015-10-09 10:23 28K 
[IMG]bios_jack_20150917T1416_20151009T1305_uvmap_lvl2_lores.jpg2015-10-09 11:30 165K 
[IMG]bios_jack_20150917T1416_20151009T1305_uvmap_lvl2_tn.jpg2015-10-09 11:30 28K 
[IMG]bios_jack_20150917T1416_20151009T1509_uvmap_lvl2_lores.jpg2015-10-09 13:56 165K 
[IMG]bios_jack_20150917T1416_20151009T1509_uvmap_lvl2_tn.jpg2015-10-09 13:56 28K 
[IMG]bios_jack_20150917T1416_20151009T1834_uvmap_lvl2_lores.jpg2015-10-09 17:43 165K 
[IMG]bios_jack_20150917T1416_20151009T1834_uvmap_lvl2_tn.jpg2015-10-09 17:43 28K 
[IMG]bios_jack_20150917T1416_20151009T2158_uvmap_lvl2_lores.jpg2015-10-09 22:16 165K 
[IMG]bios_jack_20150917T1416_20151009T2158_uvmap_lvl2_tn.jpg2015-10-09 22:16 28K 
[IMG]bios_jack_20150917T1416_20151010T0125_uvmap_lvl2_lores.jpg2015-10-10 01:24 165K 
[IMG]bios_jack_20150917T1416_20151010T0125_uvmap_lvl2_tn.jpg2015-10-10 01:24 28K 
[IMG]bios_jack_20150917T1416_20151010T0450_uvmap_lvl2_lores.jpg2015-10-10 04:44 165K 
[IMG]bios_jack_20150917T1416_20151010T0450_uvmap_lvl2_tn.jpg2015-10-10 04:44 28K 
[IMG]bios_jack_20150917T1416_20151010T0816_uvmap_lvl2_lores.jpg2015-10-10 07:44 165K 
[IMG]bios_jack_20150917T1416_20151010T0816_uvmap_lvl2_tn.jpg2015-10-10 07:44 28K 
[IMG]bios_jack_20150917T1416_20151010T1145_uvmap_lvl2_lores.jpg2015-10-10 11:24 165K 
[IMG]bios_jack_20150917T1416_20151010T1145_uvmap_lvl2_tn.jpg2015-10-10 11:24 28K 
[IMG]bios_jack_20150917T1416_20151010T1514_uvmap_lvl2_lores.jpg2015-10-10 13:36 165K 
[IMG]bios_jack_20150917T1416_20151010T1514_uvmap_lvl2_tn.jpg2015-10-10 13:36 28K 
[IMG]bios_jack_20150917T1416_20151010T1839_uvmap_lvl2_lores.jpg2015-10-10 18:27 165K 
[IMG]bios_jack_20150917T1416_20151010T1839_uvmap_lvl2_tn.jpg2015-10-10 18:27 28K 
[IMG]bios_jack_20150917T1416_20151010T2205_uvmap_lvl2_lores.jpg2015-10-10 21:40 165K 
[IMG]bios_jack_20150917T1416_20151010T2205_uvmap_lvl2_tn.jpg2015-10-10 21:40 29K 
[IMG]bios_jack_20150917T1416_20151011T0129_uvmap_lvl2_lores.jpg2015-10-11 00:40 165K 
[IMG]bios_jack_20150917T1416_20151011T0129_uvmap_lvl2_tn.jpg2015-10-11 00:40 29K 
[IMG]bios_jack_20150917T1416_20151011T0450_uvmap_lvl2_lores.jpg2015-10-11 04:06 165K 
[IMG]bios_jack_20150917T1416_20151011T0450_uvmap_lvl2_tn.jpg2015-10-11 04:06 29K 
[IMG]bios_jack_20150917T1416_20151011T0814_uvmap_lvl2_lores.jpg2015-10-11 06:32 165K 
[IMG]bios_jack_20150917T1416_20151011T0814_uvmap_lvl2_tn.jpg2015-10-11 06:32 29K 
[IMG]bios_jack_20150917T1416_20151011T1142_uvmap_lvl2_lores.jpg2015-10-11 12:07 165K 
[IMG]bios_jack_20150917T1416_20151011T1142_uvmap_lvl2_tn.jpg2015-10-11 12:07 29K 
[IMG]bios_jack_20150917T1416_20151011T1507_uvmap_lvl2_lores.jpg2015-10-11 15:21 165K 
[IMG]bios_jack_20150917T1416_20151011T1507_uvmap_lvl2_tn.jpg2015-10-11 15:21 29K 
[IMG]bios_jack_20150917T1416_20151011T1831_uvmap_lvl2_lores.jpg2015-10-11 18:00 165K 
[IMG]bios_jack_20150917T1416_20151011T1831_uvmap_lvl2_tn.jpg2015-10-11 18:00 29K 
[IMG]bios_jack_20150917T1416_20151011T2202_uvmap_lvl2_lores.jpg2015-10-11 19:25 165K 
[IMG]bios_jack_20150917T1416_20151011T2202_uvmap_lvl2_tn.jpg2015-10-11 19:25 29K 
[IMG]bios_jack_20150917T1416_20151012T0128_uvmap_lvl2_lores.jpg2015-10-12 00:02 165K 
[IMG]bios_jack_20150917T1416_20151012T0128_uvmap_lvl2_tn.jpg2015-10-12 00:02 29K 
[IMG]bios_jack_20150917T1416_20151012T0456_uvmap_lvl2_lores.jpg2015-10-12 03:40 165K 
[IMG]bios_jack_20150917T1416_20151012T0456_uvmap_lvl2_tn.jpg2015-10-12 03:40 29K 
[IMG]bios_jack_20150917T1416_20151012T0826_uvmap_lvl2_lores.jpg2015-10-12 08:53 165K 
[IMG]bios_jack_20150917T1416_20151012T0826_uvmap_lvl2_tn.jpg2015-10-12 08:53 29K 
[IMG]bios_jack_20150917T1416_20151012T1156_uvmap_lvl2_lores.jpg2015-10-12 12:19 166K 
[IMG]bios_jack_20150917T1416_20151012T1156_uvmap_lvl2_tn.jpg2015-10-12 12:19 29K 
[IMG]bios_jack_20150917T1416_20151012T1523_uvmap_lvl2_lores.jpg2015-10-12 15:40 165K 
[IMG]bios_jack_20150917T1416_20151012T1523_uvmap_lvl2_tn.jpg2015-10-12 15:40 29K 
[IMG]bios_jack_20150917T1416_20151012T1847_uvmap_lvl2_lores.jpg2015-10-12 19:14 165K 
[IMG]bios_jack_20150917T1416_20151012T1847_uvmap_lvl2_tn.jpg2015-10-12 19:14 29K 
[IMG]bios_jack_20150917T1416_20151012T2214_uvmap_lvl2_lores.jpg2015-10-12 22:38 165K 
[IMG]bios_jack_20150917T1416_20151012T2214_uvmap_lvl2_tn.jpg2015-10-12 22:38 29K 
[IMG]bios_jack_20150917T1416_20151013T0139_uvmap_lvl2_lores.jpg2015-10-13 02:08 165K 
[IMG]bios_jack_20150917T1416_20151013T0139_uvmap_lvl2_tn.jpg2015-10-13 02:08 29K 
[IMG]bios_jack_20150917T1416_20151013T0503_uvmap_lvl2_lores.jpg2015-10-13 04:44 165K 
[IMG]bios_jack_20150917T1416_20151013T0503_uvmap_lvl2_tn.jpg2015-10-13 04:44 29K 
[IMG]bios_jack_20150917T1416_20151013T0830_uvmap_lvl2_lores.jpg2015-10-13 08:20 165K 
[IMG]bios_jack_20150917T1416_20151013T0830_uvmap_lvl2_tn.jpg2015-10-13 08:20 29K 
[IMG]bios_jack_20150917T1416_20151013T1159_uvmap_lvl2_lores.jpg2015-10-13 11:48 165K 
[IMG]bios_jack_20150917T1416_20151013T1159_uvmap_lvl2_tn.jpg2015-10-13 11:48 29K 
[IMG]bios_jack_20150917T1416_20151013T1527_uvmap_lvl2_lores.jpg2015-10-13 15:20 166K 
[IMG]bios_jack_20150917T1416_20151013T1527_uvmap_lvl2_tn.jpg2015-10-13 15:20 29K 
[IMG]bios_jack_20150917T1416_20151013T1850_uvmap_lvl2_lores.jpg2015-10-13 19:20 166K 
[IMG]bios_jack_20150917T1416_20151013T1850_uvmap_lvl2_tn.jpg2015-10-13 19:20 29K 
[IMG]bios_jack_20150917T1416_20151013T2218_uvmap_lvl2_lores.jpg2015-10-13 22:53 166K 
[IMG]bios_jack_20150917T1416_20151013T2218_uvmap_lvl2_tn.jpg2015-10-13 22:53 29K 
[IMG]bios_jack_20150917T1416_20151014T0144_uvmap_lvl2_lores.jpg2015-10-14 02:32 165K 
[IMG]bios_jack_20150917T1416_20151014T0144_uvmap_lvl2_tn.jpg2015-10-14 02:32 29K 
[IMG]bios_jack_20150917T1416_20151014T0510_uvmap_lvl2_lores.jpg2015-10-14 05:13 165K 
[IMG]bios_jack_20150917T1416_20151014T0510_uvmap_lvl2_tn.jpg2015-10-14 05:13 29K 
[IMG]bios_jack_20150917T1416_20151014T0838_uvmap_lvl2_lores.jpg2015-10-14 08:17 165K 
[IMG]bios_jack_20150917T1416_20151014T0838_uvmap_lvl2_tn.jpg2015-10-14 08:17 29K 
[IMG]bios_jack_20150917T1416_20151014T1203_uvmap_lvl2_lores.jpg2015-10-14 12:02 165K 
[IMG]bios_jack_20150917T1416_20151014T1203_uvmap_lvl2_tn.jpg2015-10-14 12:02 29K 
[IMG]bios_jack_20150917T1416_20151014T1530_uvmap_lvl2_lores.jpg2015-10-14 15:18 165K 
[IMG]bios_jack_20150917T1416_20151014T1530_uvmap_lvl2_tn.jpg2015-10-14 15:18 29K 
[IMG]bios_jack_20150917T1416_20151014T1903_uvmap_lvl2_lores.jpg2015-10-14 19:22 165K 
[IMG]bios_jack_20150917T1416_20151014T1903_uvmap_lvl2_tn.jpg2015-10-14 19:22 29K 
[IMG]bios_jack_20150917T1416_20151014T2229_uvmap_lvl2_lores.jpg2015-10-14 22:22 165K 
[IMG]bios_jack_20150917T1416_20151014T2229_uvmap_lvl2_tn.jpg2015-10-14 22:22 29K 
[IMG]bios_jack_20150917T1416_20151015T0153_uvmap_lvl2_lores.jpg2015-10-15 02:20 165K 
[IMG]bios_jack_20150917T1416_20151015T0153_uvmap_lvl2_tn.jpg2015-10-15 02:20 29K 
[IMG]bios_jack_20150917T1416_20151015T0521_uvmap_lvl2_lores.jpg2015-10-15 05:41 165K 
[IMG]bios_jack_20150917T1416_20151015T0521_uvmap_lvl2_tn.jpg2015-10-15 05:41 29K 
[IMG]bios_jack_20150917T1416_20151015T0849_uvmap_lvl2_lores.jpg2015-10-15 09:17 165K 
[IMG]bios_jack_20150917T1416_20151015T0849_uvmap_lvl2_tn.jpg2015-10-15 09:17 29K 
[IMG]bios_jack_20150917T1416_20151015T1214_uvmap_lvl2_lores.jpg2015-10-15 12:38 165K 
[IMG]bios_jack_20150917T1416_20151015T1214_uvmap_lvl2_tn.jpg2015-10-15 12:38 29K 
[IMG]bios_jack_20150917T1416_20151015T1541_uvmap_lvl2_lores.jpg2015-10-15 15:55 165K 
[IMG]bios_jack_20150917T1416_20151015T1541_uvmap_lvl2_tn.jpg2015-10-15 15:55 29K 
[IMG]bios_jack_20150917T1416_20151015T1902_uvmap_lvl2_lores.jpg2015-10-15 19:02 165K 
[IMG]bios_jack_20150917T1416_20151015T1902_uvmap_lvl2_tn.jpg2015-10-15 19:02 29K 
[IMG]bios_jack_20150917T1416_20151015T2228_uvmap_lvl2_lores.jpg2015-10-15 23:24 165K 
[IMG]bios_jack_20150917T1416_20151015T2228_uvmap_lvl2_tn.jpg2015-10-15 23:24 29K 
[IMG]bios_jack_20150917T1416_20151016T0155_uvmap_lvl2_lores.jpg2015-10-16 02:35 165K 
[IMG]bios_jack_20150917T1416_20151016T0155_uvmap_lvl2_tn.jpg2015-10-16 02:35 29K 
[IMG]bios_jack_20150917T1416_20151016T0523_uvmap_lvl2_lores.jpg2015-10-16 05:22 165K 
[IMG]bios_jack_20150917T1416_20151016T0523_uvmap_lvl2_tn.jpg2015-10-16 05:22 29K 
[IMG]bios_jack_20150917T1416_20151016T0846_uvmap_lvl2_lores.jpg2015-10-16 08:42 165K 
[IMG]bios_jack_20150917T1416_20151016T0846_uvmap_lvl2_tn.jpg2015-10-16 08:42 29K 
[IMG]bios_jack_20150917T1416_20151016T1214_uvmap_lvl2_lores.jpg2015-10-16 12:31 165K 
[IMG]bios_jack_20150917T1416_20151016T1214_uvmap_lvl2_tn.jpg2015-10-16 12:31 29K 
[IMG]bios_jack_20150917T1416_20151016T1539_uvmap_lvl2_lores.jpg2015-10-16 16:09 166K 
[IMG]bios_jack_20150917T1416_20151016T1539_uvmap_lvl2_tn.jpg2015-10-16 16:09 29K 
[IMG]bios_jack_20150917T1416_20151016T1907_uvmap_lvl2_lores.jpg2015-10-16 18:59 166K 
[IMG]bios_jack_20150917T1416_20151016T1907_uvmap_lvl2_tn.jpg2015-10-16 18:59 29K 
[IMG]bios_jack_20150917T1416_20151016T2233_uvmap_lvl2_lores.jpg2015-10-16 22:21 166K 
[IMG]bios_jack_20150917T1416_20151016T2233_uvmap_lvl2_tn.jpg2015-10-16 22:21 29K 
[IMG]bios_jack_20150917T1416_20151017T0156_uvmap_lvl2_lores.jpg2015-10-17 02:18 166K 
[IMG]bios_jack_20150917T1416_20151017T0156_uvmap_lvl2_tn.jpg2015-10-17 02:18 29K 
[IMG]bios_jack_20150917T1416_20151017T0524_uvmap_lvl2_lores.jpg2015-10-17 05:58 166K 
[IMG]bios_jack_20150917T1416_20151017T0524_uvmap_lvl2_tn.jpg2015-10-17 05:58 29K 
[IMG]bios_jack_20150917T1416_20151017T0852_uvmap_lvl2_lores.jpg2015-10-17 09:18 166K 
[IMG]bios_jack_20150917T1416_20151017T0852_uvmap_lvl2_tn.jpg2015-10-17 09:18 29K 
[IMG]bios_jack_20150917T1416_20151017T1221_uvmap_lvl2_lores.jpg2015-10-17 12:03 166K 
[IMG]bios_jack_20150917T1416_20151017T1221_uvmap_lvl2_tn.jpg2015-10-17 12:03 29K 
[IMG]bios_jack_20150917T1416_20151017T1547_uvmap_lvl2_lores.jpg2015-10-17 16:19 166K 
[IMG]bios_jack_20150917T1416_20151017T1547_uvmap_lvl2_tn.jpg2015-10-17 16:19 29K 
[IMG]bios_jack_20150917T1416_20151017T1915_uvmap_lvl2_lores.jpg2015-10-17 19:18 166K 
[IMG]bios_jack_20150917T1416_20151017T1915_uvmap_lvl2_tn.jpg2015-10-17 19:18 29K 
[IMG]bios_jack_20150917T1416_20151017T2240_uvmap_lvl2_lores.jpg2015-10-17 22:18 166K 
[IMG]bios_jack_20150917T1416_20151017T2240_uvmap_lvl2_tn.jpg2015-10-17 22:18 29K 
[IMG]bios_jack_20150917T1416_20151018T0205_uvmap_lvl2_lores.jpg2015-10-18 01:09 166K 
[IMG]bios_jack_20150917T1416_20151018T0205_uvmap_lvl2_tn.jpg2015-10-18 01:09 29K 
[IMG]bios_jack_20150917T1416_20151018T0532_uvmap_lvl2_lores.jpg2015-10-18 06:13 166K 
[IMG]bios_jack_20150917T1416_20151018T0532_uvmap_lvl2_tn.jpg2015-10-18 06:13 29K 
[IMG]bios_jack_20150917T1416_20151018T0859_uvmap_lvl2_lores.jpg2015-10-18 08:58 166K 
[IMG]bios_jack_20150917T1416_20151018T0859_uvmap_lvl2_tn.jpg2015-10-18 08:58 29K 
[IMG]bios_jack_20150917T1416_20151018T1224_uvmap_lvl2_lores.jpg2015-10-18 12:18 166K 
[IMG]bios_jack_20150917T1416_20151018T1224_uvmap_lvl2_tn.jpg2015-10-18 12:18 29K 
[IMG]bios_jack_20150917T1416_20151018T1550_uvmap_lvl2_lores.jpg2015-10-18 16:35 166K 
[IMG]bios_jack_20150917T1416_20151018T1550_uvmap_lvl2_tn.jpg2015-10-18 16:35 29K 
[IMG]bios_jack_20150917T1416_20151018T1919_uvmap_lvl2_lores.jpg2015-10-18 19:17 166K 
[IMG]bios_jack_20150917T1416_20151018T1919_uvmap_lvl2_tn.jpg2015-10-18 19:17 29K 
[IMG]bios_jack_20150917T1416_20151018T2241_uvmap_lvl2_lores.jpg2015-10-19 01:39 166K 
[IMG]bios_jack_20150917T1416_20151018T2241_uvmap_lvl2_tn.jpg2015-10-19 01:39 29K 
[IMG]bios_jack_20150917T1416_20151019T0529_uvmap_lvl2_lores.jpg2015-10-19 05:32 166K 
[IMG]bios_jack_20150917T1416_20151019T0529_uvmap_lvl2_tn.jpg2015-10-19 05:32 29K 
[IMG]bios_jack_20150917T1416_20151019T0857_uvmap_lvl2_lores.jpg2015-10-19 08:31 166K 
[IMG]bios_jack_20150917T1416_20151019T0857_uvmap_lvl2_tn.jpg2015-10-19 08:31 29K 
[IMG]bios_jack_20150917T1416_20151019T1218_uvmap_lvl2_lores.jpg2015-10-19 11:37 166K 
[IMG]bios_jack_20150917T1416_20151019T1218_uvmap_lvl2_tn.jpg2015-10-19 11:37 29K 
[IMG]bios_jack_20150917T1416_20151019T1549_uvmap_lvl2_lores.jpg2015-10-19 16:09 166K 
[IMG]bios_jack_20150917T1416_20151019T1549_uvmap_lvl2_tn.jpg2015-10-19 16:09 29K 
[IMG]bios_jack_20150917T1416_20151019T1908_uvmap_lvl2_lores.jpg2015-10-19 18:38 166K 
[IMG]bios_jack_20150917T1416_20151019T1908_uvmap_lvl2_tn.jpg2015-10-19 18:38 29K 
[IMG]bios_jack_20150917T1416_20151019T2227_uvmap_lvl2_lores.jpg2015-10-20 01:23 166K 
[IMG]bios_jack_20150917T1416_20151019T2227_uvmap_lvl2_tn.jpg2015-10-20 01:23 29K 
[IMG]bios_jack_20150917T1416_20151020T0509_uvmap_lvl2_lores.jpg2015-10-20 05:21 166K 
[IMG]bios_jack_20150917T1416_20151020T0509_uvmap_lvl2_tn.jpg2015-10-20 05:21 29K 
[IMG]bios_jack_20150917T1416_20151020T0830_uvmap_lvl2_lores.jpg2015-10-20 08:18 166K 
[IMG]bios_jack_20150917T1416_20151020T0830_uvmap_lvl2_tn.jpg2015-10-20 08:18 29K 
[IMG]bios_jack_20150917T1416_20151020T1152_uvmap_lvl2_lores.jpg2015-10-20 11:32 166K 
[IMG]bios_jack_20150917T1416_20151020T1152_uvmap_lvl2_tn.jpg2015-10-20 11:32 29K 
[IMG]bios_jack_20150917T1416_20151020T1513_uvmap_lvl2_lores.jpg2015-10-20 15:30 166K 
[IMG]bios_jack_20150917T1416_20151020T1513_uvmap_lvl2_tn.jpg2015-10-20 15:30 29K 
[IMG]bios_jack_20150917T1416_20151020T1837_uvmap_lvl2_lores.jpg2015-10-20 19:05 166K 
[IMG]bios_jack_20150917T1416_20151020T1837_uvmap_lvl2_tn.jpg2015-10-20 19:05 29K 
[IMG]bios_jack_20150917T1416_20151020T2202_uvmap_lvl2_lores.jpg2015-10-20 21:43 166K 
[IMG]bios_jack_20150917T1416_20151020T2202_uvmap_lvl2_tn.jpg2015-10-20 21:43 29K 
[IMG]bios_jack_20150917T1416_20151021T0132_uvmap_lvl2_lores.jpg2015-10-21 01:43 166K 
[IMG]bios_jack_20150917T1416_20151021T0132_uvmap_lvl2_tn.jpg2015-10-21 01:43 29K 
[IMG]bios_jack_20150917T1416_20151021T0458_uvmap_lvl2_lores.jpg2015-10-21 05:24 166K 
[IMG]bios_jack_20150917T1416_20151021T0458_uvmap_lvl2_tn.jpg2015-10-21 05:24 29K 
[IMG]bios_jack_20150917T1416_20151021T0828_uvmap_lvl2_lores.jpg2015-10-21 07:58 166K 
[IMG]bios_jack_20150917T1416_20151021T0828_uvmap_lvl2_tn.jpg2015-10-21 07:58 29K 
[IMG]bios_jack_20150917T1416_20151021T1153_uvmap_lvl2_lores.jpg2015-10-21 12:24 166K 
[IMG]bios_jack_20150917T1416_20151021T1153_uvmap_lvl2_tn.jpg2015-10-21 12:24 29K 
[IMG]bios_jack_20150917T1416_20151021T1518_uvmap_lvl2_lores.jpg2015-10-21 15:36 166K 
[IMG]bios_jack_20150917T1416_20151021T1518_uvmap_lvl2_tn.jpg2015-10-21 15:36 29K 
[IMG]bios_jack_20150917T1416_20151021T1847_uvmap_lvl2_lores.jpg2015-10-21 18:56 166K 
[IMG]bios_jack_20150917T1416_20151021T1847_uvmap_lvl2_tn.jpg2015-10-21 18:56 29K 
[IMG]bios_jack_20150917T1416_20151021T2211_uvmap_lvl2_lores.jpg2015-10-21 22:22 166K 
[IMG]bios_jack_20150917T1416_20151021T2211_uvmap_lvl2_tn.jpg2015-10-21 22:22 29K 
[IMG]bios_jack_20150917T1416_20151022T0136_uvmap_lvl2_lores.jpg2015-10-22 01:42 166K 
[IMG]bios_jack_20150917T1416_20151022T0136_uvmap_lvl2_tn.jpg2015-10-22 01:42 29K 
[IMG]bios_jack_20150917T1416_20151022T0456_uvmap_lvl2_lores.jpg2015-10-22 05:24 166K 
[IMG]bios_jack_20150917T1416_20151022T0456_uvmap_lvl2_tn.jpg2015-10-22 05:24 29K 
[IMG]bios_jack_20150917T1416_20151022T0825_uvmap_lvl2_lores.jpg2015-10-22 08:47 166K 
[IMG]bios_jack_20150917T1416_20151022T0825_uvmap_lvl2_tn.jpg2015-10-22 08:47 29K 
[IMG]bios_jack_20150917T1416_20151022T1147_uvmap_lvl2_lores.jpg2015-10-22 11:58 166K 
[IMG]bios_jack_20150917T1416_20151022T1147_uvmap_lvl2_tn.jpg2015-10-22 11:58 29K 
[IMG]bios_jack_20150917T1416_20151022T1511_uvmap_lvl2_lores.jpg2015-10-22 14:43 166K 
[IMG]bios_jack_20150917T1416_20151022T1511_uvmap_lvl2_tn.jpg2015-10-22 14:43 29K 
[IMG]bios_jack_20150917T1416_20151022T1830_uvmap_lvl2_lores.jpg2015-10-22 18:42 166K 
[IMG]bios_jack_20150917T1416_20151022T1830_uvmap_lvl2_tn.jpg2015-10-22 18:42 29K 
[IMG]bios_jack_20150917T1416_20151022T2151_uvmap_lvl2_lores.jpg2015-10-22 22:02 166K 
[IMG]bios_jack_20150917T1416_20151022T2151_uvmap_lvl2_tn.jpg2015-10-22 22:02 29K 
[IMG]bios_jack_20150917T1416_20151023T0109_uvmap_lvl2_lores.jpg2015-10-23 01:13 166K 
[IMG]bios_jack_20150917T1416_20151023T0109_uvmap_lvl2_tn.jpg2015-10-23 01:13 29K 
[IMG]bios_jack_20150917T1416_20151023T0433_uvmap_lvl2_lores.jpg2015-10-23 04:10 166K 
[IMG]bios_jack_20150917T1416_20151023T0433_uvmap_lvl2_tn.jpg2015-10-23 04:10 29K 
[IMG]bios_jack_20150917T1416_20151023T0755_uvmap_lvl2_lores.jpg2015-10-23 07:50 166K 
[IMG]bios_jack_20150917T1416_20151023T0755_uvmap_lvl2_tn.jpg2015-10-23 07:50 29K 
[IMG]bios_jack_20150917T1416_20151023T1114_uvmap_lvl2_lores.jpg2015-10-23 10:26 166K 
[IMG]bios_jack_20150917T1416_20151023T1114_uvmap_lvl2_tn.jpg2015-10-23 10:26 29K 
[IMG]bios_jack_20150917T1416_20151023T1439_uvmap_lvl2_lores.jpg2015-10-23 14:46 166K 
[IMG]bios_jack_20150917T1416_20151023T1439_uvmap_lvl2_tn.jpg2015-10-23 14:46 29K 
[IMG]bios_jack_20150917T1416_20151023T1807_uvmap_lvl2_lores.jpg2015-10-23 17:44 166K 
[IMG]bios_jack_20150917T1416_20151023T1807_uvmap_lvl2_tn.jpg2015-10-23 17:44 29K 
[IMG]bios_jack_20150917T1416_20151023T2133_uvmap_lvl2_lores.jpg2015-10-23 21:15 166K 
[IMG]bios_jack_20150917T1416_20151023T2133_uvmap_lvl2_tn.jpg2015-10-23 21:15 29K 
[IMG]bios_jack_20150917T1416_20151024T0056_uvmap_lvl2_lores.jpg2015-10-24 00:35 166K 
[IMG]bios_jack_20150917T1416_20151024T0056_uvmap_lvl2_tn.jpg2015-10-24 00:35 29K 
[IMG]bios_jack_20150917T1416_20151024T0416_uvmap_lvl2_lores.jpg2015-10-24 04:25 166K 
[IMG]bios_jack_20150917T1416_20151024T0416_uvmap_lvl2_tn.jpg2015-10-24 04:25 29K 
[IMG]bios_jack_20150917T1416_20151024T0740_uvmap_lvl2_lores.jpg2015-10-24 07:03 166K 
[IMG]bios_jack_20150917T1416_20151024T0740_uvmap_lvl2_tn.jpg2015-10-24 07:03 29K 
[IMG]bios_jack_20150917T1416_20151024T1103_uvmap_lvl2_lores.jpg2015-10-24 11:05 166K 
[IMG]bios_jack_20150917T1416_20151024T1103_uvmap_lvl2_tn.jpg2015-10-24 11:05 29K 
[IMG]bios_jack_20150917T1416_20151024T1431_uvmap_lvl2_lores.jpg2015-10-24 15:07 166K 
[IMG]bios_jack_20150917T1416_20151024T1431_uvmap_lvl2_tn.jpg2015-10-24 15:07 29K 
[IMG]bios_jack_20150917T1416_20151024T1755_uvmap_lvl2_lores.jpg2015-10-24 17:47 166K 
[IMG]bios_jack_20150917T1416_20151024T1755_uvmap_lvl2_tn.jpg2015-10-24 17:47 29K 
[IMG]bios_jack_20150917T1416_20151024T2117_uvmap_lvl2_lores.jpg2015-10-24 21:12 166K 
[IMG]bios_jack_20150917T1416_20151024T2117_uvmap_lvl2_tn.jpg2015-10-24 21:12 29K 
[IMG]bios_jack_20150917T1416_20151025T0035_uvmap_lvl2_lores.jpg2015-10-25 00:35 166K 
[IMG]bios_jack_20150917T1416_20151025T0035_uvmap_lvl2_tn.jpg2015-10-25 00:35 29K 
[IMG]bios_jack_20150917T1416_20151025T0357_uvmap_lvl2_lores.jpg2015-10-25 03:57 166K 
[IMG]bios_jack_20150917T1416_20151025T0357_uvmap_lvl2_tn.jpg2015-10-25 03:57 29K 
[IMG]bios_jack_20150917T1416_20151025T0720_uvmap_lvl2_lores.jpg2015-10-25 07:16 166K 
[IMG]bios_jack_20150917T1416_20151025T0720_uvmap_lvl2_tn.jpg2015-10-25 07:16 29K 
[IMG]bios_jack_20150917T1416_20151025T1041_uvmap_lvl2_lores.jpg2015-10-25 10:13 166K 
[IMG]bios_jack_20150917T1416_20151025T1041_uvmap_lvl2_tn.jpg2015-10-25 10:13 29K 
[IMG]bios_jack_20150917T1416_20151025T1401_uvmap_lvl2_lores.jpg2015-10-25 13:47 166K 
[IMG]bios_jack_20150917T1416_20151025T1401_uvmap_lvl2_tn.jpg2015-10-25 13:47 29K 
[IMG]bios_jack_20150917T1416_20151025T1726_uvmap_lvl2_lores.jpg2015-10-25 18:07 166K 
[IMG]bios_jack_20150917T1416_20151025T1726_uvmap_lvl2_tn.jpg2015-10-25 18:07 29K 
[IMG]bios_jack_20150917T1416_20151025T2047_uvmap_lvl2_lores.jpg2015-10-25 21:07 166K 
[IMG]bios_jack_20150917T1416_20151025T2047_uvmap_lvl2_tn.jpg2015-10-25 21:07 29K 
[IMG]bios_jack_20150917T1416_20151026T0014_uvmap_lvl2_lores.jpg2015-10-26 00:57 166K 
[IMG]bios_jack_20150917T1416_20151026T0014_uvmap_lvl2_tn.jpg2015-10-26 00:57 29K 
[IMG]bios_jack_20150917T1416_20151026T0337_uvmap_lvl2_lores.jpg2015-10-26 04:07 166K 
[IMG]bios_jack_20150917T1416_20151026T0337_uvmap_lvl2_tn.jpg2015-10-26 04:07 29K 
[IMG]bios_jack_20150917T1416_20151026T0703_uvmap_lvl2_lores.jpg2015-10-26 07:02 166K 
[IMG]bios_jack_20150917T1416_20151026T0703_uvmap_lvl2_tn.jpg2015-10-26 07:02 29K 
[IMG]bios_jack_20150917T1416_20151026T1030_uvmap_lvl2_lores.jpg2015-10-26 11:02 166K 
[IMG]bios_jack_20150917T1416_20151026T1030_uvmap_lvl2_tn.jpg2015-10-26 11:02 29K 
[IMG]bios_jack_20150917T1416_20151026T1354_uvmap_lvl2_lores.jpg2015-10-26 14:02 166K 
[IMG]bios_jack_20150917T1416_20151026T1354_uvmap_lvl2_tn.jpg2015-10-26 14:02 29K 
[IMG]bios_jack_20150917T1416_20151026T1721_uvmap_lvl2_lores.jpg2015-10-26 17:43 166K 
[IMG]bios_jack_20150917T1416_20151026T1721_uvmap_lvl2_tn.jpg2015-10-26 17:43 29K 
[IMG]bios_jack_20150917T1416_20151026T2045_uvmap_lvl2_lores.jpg2015-10-26 21:37 166K 
[IMG]bios_jack_20150917T1416_20151026T2045_uvmap_lvl2_tn.jpg2015-10-26 21:37 29K 
[IMG]bios_jack_20150917T1416_20151027T0011_uvmap_lvl2_lores.jpg2015-10-26 23:48 166K 
[IMG]bios_jack_20150917T1416_20151027T0011_uvmap_lvl2_tn.jpg2015-10-26 23:48 29K 
[IMG]bios_jack_20150917T1416_20151027T0340_uvmap_lvl2_lores.jpg2015-10-27 04:28 166K 
[IMG]bios_jack_20150917T1416_20151027T0340_uvmap_lvl2_tn.jpg2015-10-27 04:28 29K 
[IMG]bios_jack_20150917T1416_20151027T0708_uvmap_lvl2_lores.jpg2015-10-27 07:23 166K 
[IMG]bios_jack_20150917T1416_20151027T0708_uvmap_lvl2_tn.jpg2015-10-27 07:23 29K 
[IMG]bios_jack_20150917T1416_20151027T1031_uvmap_lvl2_lores.jpg2015-10-27 10:49 166K 
[IMG]bios_jack_20150917T1416_20151027T1031_uvmap_lvl2_tn.jpg2015-10-27 10:49 29K 
[IMG]bios_jack_20150917T1416_20151027T1357_uvmap_lvl2_lores.jpg2015-10-27 13:02 166K 
[IMG]bios_jack_20150917T1416_20151027T1357_uvmap_lvl2_tn.jpg2015-10-27 13:02 29K 
[IMG]bios_jack_20150917T1416_20151027T1724_uvmap_lvl2_lores.jpg2015-10-27 17:41 166K 
[IMG]bios_jack_20150917T1416_20151027T1724_uvmap_lvl2_tn.jpg2015-10-27 17:41 29K 
[IMG]bios_jack_20150917T1416_20151027T2054_uvmap_lvl2_lores.jpg2015-10-27 20:33 166K 
[IMG]bios_jack_20150917T1416_20151027T2054_uvmap_lvl2_tn.jpg2015-10-27 20:33 29K 
[IMG]bios_jack_20150917T1416_20151028T0022_uvmap_lvl2_lores.jpg2015-10-28 00:18 166K 
[IMG]bios_jack_20150917T1416_20151028T0022_uvmap_lvl2_tn.jpg2015-10-28 00:18 29K 
[IMG]bios_jack_20150917T1416_20151028T0354_uvmap_lvl2_lores.jpg2015-10-28 03:34 166K 
[IMG]bios_jack_20150917T1416_20151028T0354_uvmap_lvl2_tn.jpg2015-10-28 03:34 29K 
[IMG]bios_jack_20150917T1416_20151028T0720_uvmap_lvl2_lores.jpg2015-10-28 07:38 166K 
[IMG]bios_jack_20150917T1416_20151028T0720_uvmap_lvl2_tn.jpg2015-10-28 07:38 29K 
[IMG]bios_jack_20150917T1416_20151028T1047_uvmap_lvl2_lores.jpg2015-10-28 11:09 166K 
[IMG]bios_jack_20150917T1416_20151028T1047_uvmap_lvl2_tn.jpg2015-10-28 11:09 29K 
[IMG]bios_jack_20150917T1416_20151028T1412_uvmap_lvl2_lores.jpg2015-10-28 14:44 166K 
[IMG]bios_jack_20150917T1416_20151028T1412_uvmap_lvl2_tn.jpg2015-10-28 14:44 29K 
[IMG]bios_jack_20150917T1416_20151028T1738_uvmap_lvl2_lores.jpg2015-10-28 17:17 166K 
[IMG]bios_jack_20150917T1416_20151028T1738_uvmap_lvl2_tn.jpg2015-10-28 17:17 29K 
[IMG]bios_jack_20150917T1416_20151028T2100_uvmap_lvl2_lores.jpg2015-10-28 21:38 166K 
[IMG]bios_jack_20150917T1416_20151028T2100_uvmap_lvl2_tn.jpg2015-10-28 21:38 29K 
[IMG]bios_jack_20150917T1416_20151029T0024_uvmap_lvl2_lores.jpg2015-10-29 04:29 167K 
[IMG]bios_jack_20150917T1416_20151029T0024_uvmap_lvl2_tn.jpg2015-10-29 04:29 29K 
[IMG]bios_jack_20150917T1416_20151029T0715_uvmap_lvl2_lores.jpg2015-10-29 07:23 167K 
[IMG]bios_jack_20150917T1416_20151029T0715_uvmap_lvl2_tn.jpg2015-10-29 07:23 29K 
[IMG]bios_jack_20150917T1416_20151029T1039_uvmap_lvl2_lores.jpg2015-10-29 11:01 167K 
[IMG]bios_jack_20150917T1416_20151029T1039_uvmap_lvl2_tn.jpg2015-10-29 11:01 29K 
[IMG]bios_jack_20150917T1416_20151029T1404_uvmap_lvl2_lores.jpg2015-10-29 13:57 167K 
[IMG]bios_jack_20150917T1416_20151029T1404_uvmap_lvl2_tn.jpg2015-10-29 13:58 29K 
[IMG]bios_jack_20150917T1416_20151029T1726_uvmap_lvl2_lores.jpg2015-10-29 17:36 167K 
[IMG]bios_jack_20150917T1416_20151029T1726_uvmap_lvl2_tn.jpg2015-10-29 17:36 29K 
[IMG]bios_jack_20150917T1416_20151029T2053_uvmap_lvl2_lores.jpg2015-10-29 21:31 167K 
[IMG]bios_jack_20150917T1416_20151029T2053_uvmap_lvl2_tn.jpg2015-10-29 21:31 29K 
[IMG]bios_jack_20150917T1416_20151030T0014_uvmap_lvl2_lores.jpg2015-10-30 03:43 167K 
[IMG]bios_jack_20150917T1416_20151030T0014_uvmap_lvl2_tn.jpg2015-10-30 03:43 29K 
[IMG]bios_jack_20150917T1416_20151030T0701_uvmap_lvl2_lores.jpg2015-10-30 06:58 167K 
[IMG]bios_jack_20150917T1416_20151030T0701_uvmap_lvl2_tn.jpg2015-10-30 06:58 29K 
[IMG]bios_jack_20150917T1416_20151030T1028_uvmap_lvl2_lores.jpg2015-10-30 09:47 167K 
[IMG]bios_jack_20150917T1416_20151030T1028_uvmap_lvl2_tn.jpg2015-10-30 09:47 29K 
[IMG]bios_jack_20150917T1416_20151030T1353_uvmap_lvl2_lores.jpg2015-10-30 13:41 167K 
[IMG]bios_jack_20150917T1416_20151030T1353_uvmap_lvl2_tn.jpg2015-10-30 13:41 29K 
[IMG]bios_jack_20150917T1416_20151030T1721_uvmap_lvl2_lores.jpg2015-10-30 17:51 167K 
[IMG]bios_jack_20150917T1416_20151030T1721_uvmap_lvl2_tn.jpg2015-10-30 17:51 29K 
[IMG]bios_jack_20150917T1416_20151030T2045_uvmap_lvl2_lores.jpg2015-10-30 21:18 167K 
[IMG]bios_jack_20150917T1416_20151030T2045_uvmap_lvl2_tn.jpg2015-10-30 21:18 29K 
[IMG]bios_jack_20150917T1416_20151031T0008_uvmap_lvl2_lores.jpg2015-10-31 00:16 167K 
[IMG]bios_jack_20150917T1416_20151031T0008_uvmap_lvl2_tn.jpg2015-10-31 00:16 29K 
[IMG]bios_jack_20150917T1416_20151031T0332_uvmap_lvl2_lores.jpg2015-10-31 03:27 167K 
[IMG]bios_jack_20150917T1416_20151031T0332_uvmap_lvl2_tn.jpg2015-10-31 03:27 29K 
[IMG]bios_jack_20150917T1416_20151031T0654_uvmap_lvl2_lores.jpg2015-10-31 07:17 167K 
[IMG]bios_jack_20150917T1416_20151031T0654_uvmap_lvl2_tn.jpg2015-10-31 07:17 29K 
[IMG]bios_jack_20150917T1416_20151031T1015_uvmap_lvl2_lores.jpg2015-10-31 15:43 167K 
[IMG]bios_jack_20150917T1416_20151031T1015_uvmap_lvl2_tn.jpg2015-10-31 15:43 29K 
[IMG]bios_jack_20150917T1416_20151031T1834_uvmap_lvl2_lores.jpg2015-10-31 18:52 167K 
[IMG]bios_jack_20150917T1416_20151031T1834_uvmap_lvl2_tn.jpg2015-10-31 18:52 29K 
[IMG]bios_jack_20150917T1416_20151031T2206_uvmap_lvl2_lores.jpg2015-10-31 22:23 167K 
[IMG]bios_jack_20150917T1416_20151031T2206_uvmap_lvl2_tn.jpg2015-10-31 22:23 29K 
[IMG]bios_jack_20150917T1416_20151101T0140_uvmap_lvl2_lores.jpg2015-11-01 01:57 167K 
[IMG]bios_jack_20150917T1416_20151101T0140_uvmap_lvl2_tn.jpg2015-11-01 01:57 29K 
[IMG]bios_jack_20150917T1416_20151101T0513_uvmap_lvl2_lores.jpg2015-11-01 07:43 167K 
[IMG]bios_jack_20150917T1416_20151101T0513_uvmap_lvl2_tn.jpg2015-11-01 07:43 29K 
[IMG]bios_jack_20150917T1416_20151101T1214_uvmap_lvl2_lores.jpg2015-11-01 10:01 167K 
[IMG]bios_jack_20150917T1416_20151101T1214_uvmap_lvl2_tn.jpg2015-11-01 10:01 29K 
[IMG]bios_jack_20150917T1416_20151101T1545_uvmap_lvl2_lores.jpg2015-11-01 14:23 167K 
[IMG]bios_jack_20150917T1416_20151101T1545_uvmap_lvl2_tn.jpg2015-11-01 14:23 29K 
[IMG]bios_jack_20150917T1416_20151101T1914_uvmap_lvl2_lores.jpg2015-11-01 18:44 167K 
[IMG]bios_jack_20150917T1416_20151101T1914_uvmap_lvl2_tn.jpg2015-11-01 18:44 29K 
[IMG]bios_jack_20150917T1416_20151101T2244_uvmap_lvl2_lores.jpg2015-11-01 21:24 167K 
[IMG]bios_jack_20150917T1416_20151101T2244_uvmap_lvl2_tn.jpg2015-11-01 21:24 29K 
[IMG]bios_jack_20150917T1416_20151102T0216_uvmap_lvl2_lores.jpg2015-11-02 01:45 167K 
[IMG]bios_jack_20150917T1416_20151102T0216_uvmap_lvl2_tn.jpg2015-11-02 01:45 29K 
[IMG]bios_jack_20150917T1416_20151102T0544_uvmap_lvl2_lores.jpg2015-11-02 04:24 167K 
[IMG]bios_jack_20150917T1416_20151102T0544_uvmap_lvl2_tn.jpg2015-11-02 04:24 29K 
[IMG]bios_jack_20150917T1416_20151102T0912_uvmap_lvl2_lores.jpg2015-11-02 05:45 167K 
[IMG]bios_jack_20150917T1416_20151102T0912_uvmap_lvl2_tn.jpg2015-11-02 05:45 29K 
[IMG]bios_jack_20150917T1416_20151102T1241_uvmap_lvl2_lores.jpg2015-11-02 11:44 167K 
[IMG]bios_jack_20150917T1416_20151102T1241_uvmap_lvl2_tn.jpg2015-11-02 11:44 29K 
[IMG]bios_jack_20150917T1416_20151102T1617_uvmap_lvl2_lores.jpg2015-11-02 16:04 168K 
[IMG]bios_jack_20150917T1416_20151102T1617_uvmap_lvl2_tn.jpg2015-11-02 16:04 29K 
[IMG]bios_jack_20150917T1416_20151102T1948_uvmap_lvl2_lores.jpg2015-11-02 19:18 168K 
[IMG]bios_jack_20150917T1416_20151102T1948_uvmap_lvl2_tn.jpg2015-11-02 19:18 29K 
[IMG]bios_jack_20150917T1416_20151102T2320_uvmap_lvl2_lores.jpg2015-11-02 22:23 169K 
[IMG]bios_jack_20150917T1416_20151102T2320_uvmap_lvl2_tn.jpg2015-11-02 22:23 29K 
[IMG]bios_jack_20150917T1416_20151103T0251_uvmap_lvl2_lores.jpg2015-11-03 02:18 169K 
[IMG]bios_jack_20150917T1416_20151103T0251_uvmap_lvl2_tn.jpg2015-11-03 02:18 29K 
[IMG]bios_jack_20150917T1416_20151103T0622_uvmap_lvl2_lores.jpg2015-11-03 05:38 169K 
[IMG]bios_jack_20150917T1416_20151103T0622_uvmap_lvl2_tn.jpg2015-11-03 05:38 29K 
[IMG]bios_jack_20150917T1416_20151103T0953_uvmap_lvl2_lores.jpg2015-11-03 08:38 169K 
[IMG]bios_jack_20150917T1416_20151103T0953_uvmap_lvl2_tn.jpg2015-11-03 08:38 29K 
[IMG]bios_jack_20150917T1416_20151103T1324_uvmap_lvl2_lores.jpg2015-11-03 11:24 169K 
[IMG]bios_jack_20150917T1416_20151103T1324_uvmap_lvl2_tn.jpg2015-11-03 11:24 29K 
[IMG]bios_jack_20150917T1416_20151103T1654_uvmap_lvl2_lores.jpg2015-11-03 16:28 169K 
[IMG]bios_jack_20150917T1416_20151103T1654_uvmap_lvl2_tn.jpg2015-11-03 16:28 29K 
[IMG]bios_jack_20150917T1416_20151103T2041_uvmap_lvl2_lores.jpg2015-11-03 22:33 169K 
[IMG]bios_jack_20150917T1416_20151103T2041_uvmap_lvl2_tn.jpg2015-11-03 22:33 29K 
[IMG]bios_jack_20150917T1416_20151104T0342_uvmap_lvl2_lores.jpg2015-11-04 02:44 169K 
[IMG]bios_jack_20150917T1416_20151104T0342_uvmap_lvl2_tn.jpg2015-11-04 02:44 29K 
[IMG]bios_jack_20150917T1416_20151104T0716_uvmap_lvl2_lores.jpg2015-11-04 06:44 170K 
[IMG]bios_jack_20150917T1416_20151104T0716_uvmap_lvl2_tn.jpg2015-11-04 06:44 29K 
[IMG]bios_jack_20150917T1416_20151104T1048_uvmap_lvl2_lores.jpg2015-11-04 10:04 170K 
[IMG]bios_jack_20150917T1416_20151104T1048_uvmap_lvl2_tn.jpg2015-11-04 10:04 29K 
[IMG]bios_jack_20150917T1416_20151104T1418_uvmap_lvl2_lores.jpg2015-11-04 13:24 171K 
[IMG]bios_jack_20150917T1416_20151104T1418_uvmap_lvl2_tn.jpg2015-11-04 13:24 29K 
[IMG]bios_jack_20150917T1416_20151104T1747_uvmap_lvl2_lores.jpg2015-11-04 17:03 171K 
[IMG]bios_jack_20150917T1416_20151104T1747_uvmap_lvl2_tn.jpg2015-11-04 17:03 29K 
[IMG]bios_jack_20150917T1416_20151104T2125_uvmap_lvl2_lores.jpg2015-11-04 18:53 172K 
[IMG]bios_jack_20150917T1416_20151104T2125_uvmap_lvl2_tn.jpg2015-11-04 18:53 29K 
[IMG]bios_jack_20150917T1416_20151105T0057_uvmap_lvl2_lores.jpg2015-11-04 23:43 172K 
[IMG]bios_jack_20150917T1416_20151105T0057_uvmap_lvl2_tn.jpg2015-11-04 23:43 29K 
[IMG]bios_jack_20150917T1416_20151105T0433_uvmap_lvl2_lores.jpg2015-11-05 03:58 172K 
[IMG]bios_jack_20150917T1416_20151105T0433_uvmap_lvl2_tn.jpg2015-11-05 03:58 29K 
[IMG]bios_jack_20150917T1416_20151105T0803_uvmap_lvl2_lores.jpg2015-11-05 07:18 172K 
[IMG]bios_jack_20150917T1416_20151105T0803_uvmap_lvl2_tn.jpg2015-11-05 07:18 29K 
[IMG]bios_jack_20150917T1416_20151105T1138_uvmap_lvl2_lores.jpg2015-11-05 11:04 173K 
[IMG]bios_jack_20150917T1416_20151105T1138_uvmap_lvl2_tn.jpg2015-11-05 11:04 29K 
[IMG]bios_jack_20150917T1416_20151105T1507_uvmap_lvl2_lores.jpg2015-11-05 14:39 173K 
[IMG]bios_jack_20150917T1416_20151105T1507_uvmap_lvl2_tn.jpg2015-11-05 14:39 29K 
[IMG]bios_jack_20150917T1416_20151105T1841_uvmap_lvl2_lores.jpg2015-11-05 17:19 173K 
[IMG]bios_jack_20150917T1416_20151105T1841_uvmap_lvl2_tn.jpg2015-11-05 17:19 29K 
[IMG]bios_jack_20150917T1416_20151105T2218_uvmap_lvl2_lores.jpg2015-11-05 21:39 173K 
[IMG]bios_jack_20150917T1416_20151105T2218_uvmap_lvl2_tn.jpg2015-11-05 21:39 29K 
[IMG]bios_jack_20150917T1416_20151106T0147_uvmap_lvl2_lores.jpg2015-11-05 23:19 173K 
[IMG]bios_jack_20150917T1416_20151106T0147_uvmap_lvl2_tn.jpg2015-11-05 23:19 29K 
[IMG]bios_jack_20150917T1416_20151106T0516_uvmap_lvl2_lores.jpg2015-11-06 03:39 173K 
[IMG]bios_jack_20150917T1416_20151106T0516_uvmap_lvl2_tn.jpg2015-11-06 03:39 29K 
[IMG]bios_jack_20150917T1416_20151106T0845_uvmap_lvl2_lores.jpg2015-11-06 06:19 173K 
[IMG]bios_jack_20150917T1416_20151106T0845_uvmap_lvl2_tn.jpg2015-11-06 06:19 29K 
[IMG]bios_jack_20150917T1416_20151106T1217_uvmap_lvl2_lores.jpg2015-11-06 11:01 173K 
[IMG]bios_jack_20150917T1416_20151106T1217_uvmap_lvl2_tn.jpg2015-11-06 11:01 29K 
[IMG]bios_jack_20150917T1416_20151106T1541_uvmap_lvl2_lores.jpg2015-11-06 14:40 173K 
[IMG]bios_jack_20150917T1416_20151106T1541_uvmap_lvl2_tn.jpg2015-11-06 14:40 29K 
[IMG]bios_jack_20150917T1416_20151106T1911_uvmap_lvl2_lores.jpg2015-11-06 16:39 173K 
[IMG]bios_jack_20150917T1416_20151106T1911_uvmap_lvl2_tn.jpg2015-11-06 16:39 29K 
[IMG]bios_jack_20150917T1416_20151106T2059_uvmap_lvl2_lores.jpg2015-11-06 17:30 173K 
[IMG]bios_jack_20150917T1416_20151106T2059_uvmap_lvl2_tn.jpg2015-11-06 17:30 29K 
[IMG]bios_jack_20150917T1416_20151106T2244_uvmap_lvl2_lores.jpg2015-11-06 19:09 173K 
[IMG]bios_jack_20150917T1416_20151106T2244_uvmap_lvl2_tn.jpg2015-11-06 19:09 29K 
[IMG]bios_jack_20150917T1416_20151107T0025_uvmap_lvl2_lores.jpg2015-11-06 21:21 173K 
[IMG]bios_jack_20150917T1416_20151107T0025_uvmap_lvl2_tn.jpg2015-11-06 21:21 29K 
[IMG]bios_jack_20150917T1416_20151107T0205_uvmap_lvl2_lores.jpg2015-11-06 23:39 173K 
[IMG]bios_jack_20150917T1416_20151107T0205_uvmap_lvl2_tn.jpg2015-11-06 23:39 30K 
[IMG]bios_jack_20150917T1416_20151107T0344_uvmap_lvl2_lores.jpg2015-11-07 00:30 180K 
[IMG]bios_jack_20150917T1416_20151107T0344_uvmap_lvl2_tn.jpg2015-11-07 00:30 32K 
[IMG]bios_jack_20150917T1416_20151107T0527_uvmap_lvl2_lores.jpg2015-11-07 01:46 180K 
[IMG]bios_jack_20150917T1416_20151107T0527_uvmap_lvl2_tn.jpg2015-11-07 01:46 32K 
[IMG]bios_jack_20150917T1416_20151107T0649_uvmap_lvl2_lores.jpg2015-11-07 04:19 180K 
[IMG]bios_jack_20150917T1416_20151107T0649_uvmap_lvl2_tn.jpg2015-11-07 04:19 32K 
[IMG]bios_jack_20150917T1416_20151107T0811_uvmap_lvl2_lores.jpg2015-11-07 05:10 180K 
[IMG]bios_jack_20150917T1416_20151107T0811_uvmap_lvl2_tn.jpg2015-11-07 05:10 32K 
[IMG]bios_jack_20150917T1416_20151107T0931_uvmap_lvl2_lores.jpg2015-11-07 06:39 180K 
[IMG]bios_jack_20150917T1416_20151107T0931_uvmap_lvl2_tn.jpg2015-11-07 06:39 32K 
[IMG]bios_jack_20150917T1416_20151107T1050_uvmap_lvl2_lores.jpg2015-11-07 07:30 180K 
[IMG]bios_jack_20150917T1416_20151107T1050_uvmap_lvl2_tn.jpg2015-11-07 07:30 32K 
[IMG]bios_jack_20150917T1416_20151107T1211_uvmap_lvl2_lores.jpg2015-11-07 08:46 180K 
[IMG]bios_jack_20150917T1416_20151107T1211_uvmap_lvl2_tn.jpg2015-11-07 08:46 32K 
[IMG]bios_jack_20150917T1416_20151107T1422_uvmap_lvl2_lores.jpg2015-11-07 11:19 181K 
[IMG]bios_jack_20150917T1416_20151107T1422_uvmap_lvl2_tn.jpg2015-11-07 11:19 33K 
[IMG]bios_jack_20150917T1416_20151107T1608_uvmap_lvl2_lores.jpg2015-11-07 12:30 182K 
[IMG]bios_jack_20150917T1416_20151107T1608_uvmap_lvl2_tn.jpg2015-11-07 12:30 33K 
[IMG]bios_jack_20150917T1416_20151107T1704_uvmap_lvl2_lores.jpg2015-11-07 15:59 182K 
[IMG]bios_jack_20150917T1416_20151107T1704_uvmap_lvl2_tn.jpg2015-11-07 15:59 33K 
[IMG]bios_jack_20150917T1416_20151107T1953_uvmap_lvl2_lores.jpg2015-11-10 07:20 176K 
[IMG]bios_jack_20150917T1416_20151107T1953_uvmap_lvl2_tn.jpg2015-11-10 07:20 32K